Simultaneous Nadir Overpasses (SNOs) Predictions

Prediction of SNOs between GOES-16 and NOAA-20 Satellite Orbit:

Table of predicted SNOs for the next 14.0 days since TLE Epoch: 6/13/2025
Index Date Time (GOES-16) GOES-16 Lat,Lon NOAA-20 Lat,Lon Distance(km) Time Diff (sec)
1 06/13/2025 20:33:44 0.00,-104.74 0.00,-107.46 302.53 0
2 06/14/2025 20:16:10 0.00,-104.73 0.42,-102.80 220.25 80
3 06/16/2025 08:37:58 0.00,-104.72 0.77,-108.06 381.98 80
4 06/17/2025 08:16:33 -0.00,-104.71 -0.23,-103.53 133.51 80
5 06/18/2025 20:38:30 -0.00,-104.70 -0.95,-108.83 471.70 80
6 06/19/2025 20:22:25 -0.00,-104.69 0.06,-104.30 44.00 80
7 06/22/2025 08:25:30 -0.01,-104.67 0.06,-105.05 43.11 80
8 06/23/2025 08:04:06 -0.01,-104.66 -0.96,-100.52 472.08 80
9 06/24/2025 20:26:01 0.00,-104.64 -0.28,-105.81 133.84 80
10 06/25/2025 20:09:56 0.00,-104.63 0.74,-101.28 381.59 80
11 06/27/2025 08:31:45 0.00,-104.61 0.44,-106.55 220.40 80
